QPF
0.05 0.05 0.06 0.08 0.10 0.13 0.16 0.16 0.15 0.14 0.14 0.12 0.10 0.05 0.03 0.03 0.07 0.10 0.14 0.13 0.09 0.08 0.06 0.05 0.05 0.05 0.05 0.05 0.04 0.04 0.02 0.02 0.03 0.03 0.03 0.02 0.03 0.03 0.04 0.05 0.04 0.04 0.05
0.06 0.06 0.07 0.07 0.08 0.08 0.10 0.11 0.12 0.12 0.13 0.11 0.09 0.05 0.03 0.03 0.05 0.06 0.09 0.11 0.11 0.08 0.05 0.05 0.06 0.07 0.06 0.05 0.05 0.04 0.03 0.03 0.03 0.04 0.04 0.03 0.03 0.03 0.04 0.04 0.04 0.04 0.05
0.06 0.06 0.07 0.07 0.07 0.08 0.08 0.07 0.08 0.08 0.08 0.08 0.07 0.06 0.05 0.06 0.06 0.05 0.06 0.09 0.09 0.07 0.05 0.05 0.06 0.07 0.07 0.06 0.05 0.05 0.05 0.03 0.03 0.05 0.05 0.04 0.04 0.03 0.03 0.04 0.04 0.05 0.05
0.06 0.06 0.08 0.08 0.08 0.07 0.07 0.06 0.06 0.06 0.07 0.06 0.07 0.07 0.07 0.07 0.06 0.06 0.07 0.07 0.08 0.06 0.06 0.06 0.06 0.06 0.06 0.06 0.06 0.06 0.05 0.04 0.04 0.05 0.06 0.05 0.04 0.04 0.03 0.04 0.04 0.05 0.05
0.04 0.04 0.07 0.08 0.07 0.06 0.06 0.06 0.07 0.08 0.08 0.10 0.09 0.09 0.08 0.08 0.07 0.07 0.07 0.06 0.06 0.06 0.07 0.06 0.05 0.05 0.06 0.06 0.07 0.06 0.06 0.06 0.05 0.05 0.07 0.06 0.05 0.05 0.05 0.04 0.04 0.04 0.04
0.05 0.05 0.07 0.08 0.07 0.06 0.08 0.08 0.08 0.10 0.10 0.11 0.11 0.12 0.11 0.09 0.08 0.07 0.07 0.06 0.06 0.05 0.06 0.06 0.04 0.04 0.04 0.05 0.07 0.08 0.07 0.07 0.07 0.07 0.08 0.09 0.08 0.05 0.06 0.06 0.06 0.05 0.04
0.07 0.06 0.06 0.07 0.07 0.07 0.09 0.08 0.09 0.10 0.11 0.11 0.13 0.15 0.15 0.11 0.10 0.08 0.08 0.07 0.06 0.05 0.06 0.05 0.04 0.04 0.03 0.04 0.05 0.08 0.10 0.10 0.10 0.10 0.11 0.11 0.10 0.08 0.06 0.07 0.07 0.05 0.05
0.06 0.05 0.05 0.07 0.08 0.08 0.09 0.08 0.09 0.10 0.11 0.12 0.14 0.17 0.18 0.19 0.14 0.11 0.11 0.08 0.06 0.06 0.06 0.05 0.04 0.04 0.03 0.04 0.04 0.05 0.07 0.08 0.07 0.08 0.10 0.11 0.13 0.12 0.09 0.08 0.07 0.06 0.06
0.05 0.04 0.04 0.05 0.07 0.08 0.09 0.09 0.09 0.11 0.12 0.14 0.13 0.15 0.18 0.19 0.18 0.17 0.13 0.09 0.08 0.07 0.06 0.04 0.03 0.03 0.03 0.04 0.03 0.03 0.04 0.04 0.04 0.05 0.07 0.07 0.08 0.12 0.13 0.10 0.08 0.08 0.07
0.06 0.05 0.05 0.05 0.07 0.09 0.10 0.08 0.09 0.10 0.13 0.15 0.14 0.13 0.14 0.14 0.16 0.16 0.13 0.09 0.08 0.06 0.05 0.04 0.03 0.03 0.03 0.03 0.03 0.01 0.02 0.02 0.02 0.02 0.03 0.04 0.04 0.06 0.08 0.10 0.10 0.13 0.12
0.07 0.06 0.07 0.07 0.07 0.09 0.10 0.10 0.08 0.07 0.10 0.14 0.14 0.15 0.15 0.12 0.11 0.12 0.13 0.12 0.09 0.05 0.04 0.04 0.04 0.04 0.03 0.03 0.04 0.01 0.01 0.01 0.01 0.01 0.01 0.02 0.02 0.03 0.04 0.05 0.08 0.14 0.19
0.08 0.08 0.09 0.11 0.10 0.10 0.11 0.10 0.08 0.06 0.07 0.10 0.12 0.15 0.19 0.12 0.09 0.10 0.11 0.11 0.09 0.05 0.05 0.06 0.06 0.06 0.04 0.04 0.04 0.02 0.01 0.01 0.01 0.01 0.01 0.01 0.01 0.02 0.02 0.04 0.05 0.10 0.19
0.08 0.10 0.10 0.11 0.10 0.10 0.10 0.10 0.09 0.08 0.07 0.09 0.08 0.09 0.11 0.11 0.11 0.09 0.09 0.08 0.08 0.06 0.05 0.06 0.07 0.07 0.05 0.06 0.05 0.03 0.01 0.01 0.01 0.00 0.01 0.01 0.01 0.02 0.02 0.02 0.04 0.07 0.10
0.08 0.09 0.10 0.10 0.08 0.08 0.09 0.11 0.10 0.09 0.09 0.08 0.08 0.09 0.09 0.07 0.08 0.07 0.07 0.08 0.08 0.07 0.06 0.06 0.06 0.05 0.04 0.05 0.06 0.03 0.01 0.00 0.01 0.01 0.01 0.01 0.01 0.01 0.02 0.02 0.04 0.05 0.07
0.08 0.07 0.06 0.06 0.06 0.07 0.07 0.09 0.10 0.10 0.11 0.09 0.10 0.11 0.08 0.07 0.06 0.04 0.04 0.05 0.06 0.08 0.08 0.06 0.05 0.04 0.03 0.04 0.05 0.03 0.02 0.01 0.01 0.00 0.00 0.00 0.00 0.00 0.00 0.01 0.02 0.02 0.04
0.08 0.08 0.06 0.05 0.05 0.06 0.07 0.08 0.09 0.09 0.09 0.09 0.11 0.12 0.09 0.08 0.07 0.05 0.05 0.04 0.04 0.06 0.09 0.04 0.04 0.05 0.05 0.04 0.04 0.03 0.04 0.04 0.01 0.00 0.00 0.00 0.00 0.00 0.00 0.00 0.01 0.01 0.01
0.05 0.07 0.07 0.08 0.07 0.07 0.08 0.09 0.09 0.10 0.09 0.09 0.10 0.12 0.11 0.08 0.08 0.06 0.06 0.06 0.05 0.05 0.06 0.05 0.04 0.05 0.05 0.08 0.06 0.04 0.05 0.04 0.03 0.02 0.01 0.00 0.00 0.00 0.00 0.00 0.00 0.01 0.01
0.04 0.05 0.07 0.07 0.06 0.07 0.08 0.08 0.07 0.08 0.08 0.09 0.08 0.08 0.09 0.09 0.08 0.08 0.09 0.08 0.07 0.07 0.06 0.06 0.05 0.04 0.05 0.06 0.07 0.05 0.04 0.03 0.03 0.02 0.02 0.01 0.01 0.01 0.00 0.00 0.00 0.00 0.01
0.03 0.03 0.04 0.05 0.04 0.05 0.07 0.07 0.06 0.05 0.06 0.08 0.07 0.06 0.06 0.06 0.07 0.07 0.07 0.07 0.08 0.06 0.07 0.07 0.05 0.05 0.05 0.04 0.06 0.06 0.06 0.05 0.02 0.02 0.02 0.01 0.01 0.01 0.01 0.00 0.00 0.00 0.01
0.02 0.02 0.04 0.04 0.04 0.05 0.04 0.05 0.06 0.05 0.05 0.07 0.06 0.05 0.05 0.04 0.05 0.07 0.05 0.05 0.05 0.06 0.07 0.07 0.06 0.05 0.05 0.04 0.06 0.06 0.06 0.06 0.05 0.04 0.03 0.02 0.02 0.02 0.01 0.01 0.01 0.01 0.01
0.01 0.01 0.02 0.03 0.03 0.03 0.03 0.04 0.05 0.06 0.07 0.09 0.07 0.04 0.04 0.04 0.04 0.04 0.03 0.05 0.05 0.04 0.05 0.06 0.05 0.05 0.05 0.06 0.05 0.04 0.04 0.05 0.04 0.04 0.05 0.05 0.05 0.06 0.05 0.02 0.01 0.01 0.01
0.02 0.01 0.01 0.01 0.02 0.01 0.02 0.03 0.04 0.05 0.07 0.07 0.06 0.06 0.05 0.05 0.03 0.02 0.01 0.02 0.03 0.03 0.04 0.05 0.04 0.05 0.06 0.05 0.04 0.05 0.05 0.06 0.05 0.03 0.04 0.05 0.05 0.06 0.05 0.03 0.02 0.01 0.01
0.02 0.02 0.01 0.02 0.02 0.02 0.01 0.01 0.01 0.03 0.06 0.07 0.07 0.08 0.06 0.05 0.04 0.02 0.01 0.01 0.01 0.01 0.02 0.03 0.04 0.04 0.05 0.05 0.05 0.05 0.05 0.06 0.05 0.03 0.03 0.03 0.04 0.04 0.02 0.02 0.02 0.01 0.01
0.02 0.02 0.02 0.02 0.03 0.02 0.01 0.01 0.01 0.02 0.04 0.04 0.05 0.06 0.07 0.06 0.07 0.05 0.04 0.03 0.01 0.01 0.01 0.02 0.02 0.03 0.04 0.04 0.04 0.04 0.05 0.05 0.04 0.04 0.03 0.03 0.03 0.03 0.02 0.02 0.01 0.01 0.01
0.03 0.03 0.03 0.03 0.03 0.03 0.01 0.01 0.01 0.01 0.02 0.03 0.05 0.06 0.06 0.05 0.07 0.06 0.06 0.06 0.04 0.03 0.01 0.01 0.01 0.01 0.02 0.03 0.02 0.04 0.05 0.06 0.04 0.03 0.03 0.03 0.03 0.04 0.04 0.03 0.02 0.02 0.02
0.03 0.02 0.02 0.02 0.03 0.03 0.02 0.01 0.01 0.02 0.03 0.04 0.05 0.05 0.06 0.05 0.06 0.05 0.04 0.05 0.04 0.04 0.04 0.04 0.03 0.02 0.01 0.01 0.01 0.02 0.04 0.06 0.04 0.03 0.02 0.03 0.03 0.05 0.05 0.04 0.03 0.03 0.02
MSLP
1005.85 1005.77 1005.76 1005.87 1006.11 1006.49 1007.00 1007.62 1008.33 1009.08 1009.86 1010.65 1011.42 1012.17 1012.88 1013.53 1014.12 1014.64 1015.09 1015.50 1015.87 1016.24 1016.62 1017.03 1017.46 1017.91 1018.35 1018.75 1019.09 1019.36 1019.55 1019.70 1019.82 1019.94 1020.07 1020.23 1020.40 1020.56 1020.68 1020.75 1020.75 1020.69 1020.60
1005.97 1005.89 1005.89 1006.02 1006.28 1006.69 1007.23 1007.88 1008.60 1009.39 1010.20 1011.01 1011.80 1012.56 1013.25 1013.89 1014.44 1014.92 1015.34 1015.72 1016.08 1016.46 1016.88 1017.33 1017.81 1018.30 1018.76 1019.17 1019.50 1019.74 1019.91 1020.03 1020.13 1020.24 1020.38 1020.54 1020.72 1020.88 1021.01 1021.06 1021.05 1020.98 1020.87
1006.12 1006.06 1006.09 1006.26 1006.57 1007.01 1007.57 1008.24 1008.99 1009.79 1010.61 1011.44 1012.24 1012.99 1013.68 1014.28 1014.80 1015.24 1015.62 1015.96 1016.31 1016.69 1017.12 1017.61 1018.12 1018.64 1019.12 1019.54 1019.86 1020.09 1020.24 1020.34 1020.42 1020.52 1020.64 1020.80 1020.97 1021.12 1021.24 1021.29 1021.27 1021.20 1021.09
1006.28 1006.25 1006.34 1006.56 1006.92 1007.40 1007.99 1008.67 1009.42 1010.22 1011.04 1011.87 1012.67 1013.42 1014.10 1014.68 1015.17 1015.57 1015.91 1016.23 1016.55 1016.92 1017.35 1017.84 1018.37 1018.91 1019.41 1019.83 1020.15 1020.38 1020.52 1020.60 1020.67 1020.75 1020.86 1021.01 1021.16 1021.30 1021.40 1021.44 1021.42 1021.35 1021.25
1006.43 1006.46 1006.62 1006.89 1007.30 1007.81 1008.41 1009.09 1009.84 1010.62 1011.43 1012.25 1013.04 1013.79 1014.46 1015.04 1015.52 1015.90 1016.22 1016.51 1016.80 1017.15 1017.56 1018.04 1018.56 1019.09 1019.60 1020.02 1020.36 1020.59 1020.73 1020.82 1020.89 1020.96 1021.06 1021.18 1021.31 1021.43 1021.50 1021.53 1021.50 1021.43 1021.35
1006.61 1006.70 1006.91 1007.24 1007.68 1008.21 1008.81 1009.47 1010.18 1010.93 1011.72 1012.52 1013.31 1014.06 1014.75 1015.34 1015.83 1016.22 1016.53 1016.80 1017.07 1017.38 1017.76 1018.21 1018.70 1019.22 1019.71 1020.14 1020.48 1020.73 1020.90 1021.01 1021.09 1021.17 1021.26 1021.36 1021.46 1021.55 1021.59 1021.59 1021.54 1021.47 1021.39
1006.82 1006.96 1007.21 1007.58 1008.03 1008.55 1009.12 1009.74 1010.40 1011.11 1011.86 1012.65 1013.44 1014.22 1014.93 1015.57 1016.09 1016.51 1016.83 1017.10 1017.36 1017.64 1017.97 1018.37 1018.83 1019.31 1019.77 1020.20 1020.55 1020.83 1021.03 1021.17 1021.28 1021.38 1021.48 1021.57 1021.65 1021.70 1021.71 1021.66 1021.59 1021.49 1021.41
1007.09 1007.25 1007.53 1007.89 1008.33 1008.81 1009.33 1009.89 1010.48 1011.14 1011.85 1012.63 1013.43 1014.24 1015.01 1015.71 1016.29 1016.76 1017.12 1017.41 1017.66 1017.91 1018.21 1018.55 1018.95 1019.39 1019.83 1020.24 1020.60 1020.90 1021.14 1021.33 1021.49 1021.62 1021.73 1021.83 1021.89 1021.91 1021.87 1021.79 1021.67 1021.55 1021.44
1007.42 1007.58 1007.84 1008.18 1008.57 1008.99 1009.43 1009.90 1010.43 1011.03 1011.71 1012.47 1013.29 1014.15 1014.98 1015.75 1016.41 1016.95 1017.36 1017.68 1017.94 1018.18 1018.44 1018.74 1019.09 1019.48 1019.88 1020.27 1020.64 1020.97 1021.25 1021.49 1021.69 1021.87 1022.01 1022.12 1022.17 1022.17 1022.11 1021.98 1021.82 1021.66 1021.51
1007.80 1007.93 1008.16 1008.43 1008.74 1009.08 1009.43 1009.81 1010.26 1010.80 1011.45 1012.20 1013.05 1013.95 1014.84 1015.69 1016.43 1017.04 1017.52 1017.89 1018.17 1018.41 1018.65 1018.91 1019.22 1019.57 1019.94 1020.32 1020.68 1021.03 1021.35 1021.63 1021.89 1022.10 1022.28 1022.41 1022.47 1022.46 1022.38 1022.23 1022.04 1021.84 1021.65
1008.20 1008.30 1008.46 1008.65 1008.87 1009.10 1009.35 1009.65 1010.02 1010.51 1011.12 1011.87 1012.73 1013.66 1014.61 1015.52 1016.33 1017.01 1017.55 1017.96 1018.28 1018.54 1018.78 1019.03 1019.32 1019.64 1019.98 1020.35 1020.71 1021.07 1021.41 1021.73 1022.02 1022.28 1022.49 1022.65 1022.73 1022.73 1022.65 1022.49 1022.29 1022.06 1021.84
1008.61 1008.65 1008.73 1008.84 1008.96 1009.09 1009.25 1009.46 1009.77 1010.21 1010.80 1011.53 1012.39 1013.34 1014.31 1015.25 1016.10 1016.83 1017.42 1017.88 1018.24 1018.53 1018.80 1019.06 1019.35 1019.66 1020.00 1020.35 1020.72 1021.07 1021.42 1021.76 1022.07 1022.35 1022.59 1022.78 1022.89 1022.92 1022.86 1022.72 1022.52 1022.29 1022.06
1008.99 1008.99 1009.00 1009.02 1009.04 1009.09 1009.16 1009.32 1009.57 1009.97 1010.53 1011.24 1012.09 1013.02 1013.99 1014.92 1015.78 1016.53 1017.14 1017.64 1018.04 1018.37 1018.68 1018.97 1019.29 1019.62 1019.96 1020.32 1020.67 1021.02 1021.36 1021.69 1022.01 1022.30 1022.56 1022.77 1022.91 1022.98 1022.96 1022.86 1022.70 1022.49 1022.27
1009.35 1009.30 1009.25 1009.21 1009.16 1009.14 1009.16 1009.27 1009.49 1009.86 1010.39 1011.08 1011.89 1012.77 1013.69 1014.59 1015.41 1016.13 1016.75 1017.26 1017.69 1018.07 1018.43 1018.77 1019.13 1019.50 1019.87 1020.23 1020.58 1020.92 1021.24 1021.54 1021.84 1022.12 1022.37 1022.60 1022.77 1022.89 1022.92 1022.88 1022.77 1022.61 1022.43
1009.67 1009.60 1009.52 1009.43 1009.35 1009.29 1009.28 1009.37 1009.58 1009.93 1010.44 1011.08 1011.83 1012.65 1013.49 1014.30 1015.05 1015.72 1016.30 1016.80 1017.25 1017.67 1018.08 1018.48 1018.90 1019.32 1019.72 1020.10 1020.45 1020.77 1021.06 1021.33 1021.59 1021.84 1022.08 1022.30 1022.49 1022.64 1022.73 1022.75 1022.71 1022.61 1022.48
1009.98 1009.92 1009.83 1009.72 1009.62 1009.55 1009.55 1009.64 1009.84 1010.19 1010.67 1011.27 1011.96 1012.69 1013.42 1014.13 1014.78 1015.36 1015.88 1016.35 1016.79 1017.23 1017.68 1018.14 1018.62 1019.09 1019.53 1019.94 1020.29 1020.60 1020.86 1021.09 1021.29 1021.50 1021.71 1021.91 1022.11 1022.28 1022.41 1022.48 1022.51 1022.48 1022.42
1010.28 1010.24 1010.16 1010.07 1009.98 1009.93 1009.95 1010.06 1010.29 1010.64 1011.10 1011.65 1012.26 1012.90 1013.52 1014.10 1014.63 1015.10 1015.53 1015.95 1016.36 1016.80 1017.28 1017.79 1018.31 1018.83 1019.31 1019.75 1020.11 1020.41 1020.64 1020.83 1020.99 1021.15 1021.31 1021.48 1021.66 1021.83 1021.98 1022.10 1022.18 1022.21 1022.21
1010.57 1010.56 1010.52 1010.46 1010.41 1010.40 1010.45 1010.60 1010.85 1011.20 1011.65 1012.16 1012.70 1013.24 1013.75 1014.21 1014.61 1014.96 1015.30 1015.64 1016.01 1016.44 1016.91 1017.44 1018.00 1018.55 1019.07 1019.53 1019.91 1020.21 1020.42 1020.58 1020.70 1020.81 1020.92 1021.04 1021.19 1021.34 1021.49 1021.62 1021.73 1021.81 1021.86
1010.82 1010.86 1010.86 1010.85 1010.85 1010.88 1010.98 1011.17 1011.45 1011.81 1012.25 1012.72 1013.20 1013.66 1014.06 1014.40 1014.69 1014.94 1015.17 1015.44 1015.75 1016.13 1016.59 1017.11 1017.68 1018.25 1018.79 1019.27 1019.67 1019.97 1020.18 1020.33 1020.41 1020.48 1020.54 1020.62 1020.71 1020.82 1020.95 1021.07 1021.19 1021.29 1021.37
1011.02 1011.10 1011.16 1011.19 1011.24 1011.33 1011.48 1011.70 1012.01 1012.38 1012.81 1013.25 1013.68 1014.07 1014.39 1014.64 1014.83 1014.98 1015.13 1015.31 1015.55 1015.88 1016.29 1016.79 1017.34 1017.91 1018.45 1018.95 1019.36 1019.67 1019.89 1020.03 1020.10 1020.14 1020.16 1020.19 1020.23 1020.29 1020.37 1020.47 1020.57 1020.67 1020.77
1011.12 1011.25 1011.35 1011.44 1011.54 1011.68 1011.87 1012.13 1012.46 1012.84 1013.26 1013.68 1014.07 1014.41 1014.67 1014.85 1014.96 1015.04 1015.12 1015.22 1015.40 1015.66 1016.02 1016.47 1016.98 1017.52 1018.05 1018.54 1018.96 1019.29 1019.52 1019.67 1019.74 1019.76 1019.75 1019.74 1019.73 1019.74 1019.77 1019.82 1019.90 1019.99 1020.09
1011.12 1011.28 1011.42 1011.56 1011.71 1011.90 1012.13 1012.42 1012.77 1013.17 1013.58 1013.98 1014.34 1014.64 1014.86 1015.00 1015.07 1015.09 1015.11 1015.16 1015.28 1015.47 1015.77 1016.15 1016.60 1017.10 1017.60 1018.07 1018.48 1018.82 1019.06 1019.22 1019.30 1019.32 1019.29 1019.25 1019.21 1019.17 1019.15 1019.16 1019.20 1019.27 1019.38
1010.99 1011.18 1011.37 1011.55 1011.75 1011.98 1012.26 1012.58 1012.94 1013.34 1013.75 1014.14 1014.48 1014.76 1014.96 1015.08 1015.12 1015.12 1015.11 1015.12 1015.18 1015.31 1015.54 1015.85 1016.23 1016.67 1017.12 1017.55 1017.94 1018.27 1018.52 1018.69 1018.78 1018.81 1018.78 1018.72 1018.65 1018.58 1018.53 1018.50 1018.51 1018.57 1018.67
1010.75 1010.97 1011.19 1011.42 1011.67 1011.94 1012.25 1012.61 1012.99 1013.40 1013.81 1014.19 1014.53 1014.80 1014.99 1015.10 1015.14 1015.14 1015.11 1015.09 1015.11 1015.20 1015.36 1015.60 1015.91 1016.27 1016.65 1017.04 1017.40 1017.70 1017.95 1018.12 1018.22 1018.26 1018.24 1018.18 1018.10 1018.02 1017.94 1017.89 1017.89 1017.93 1018.03
1010.42 1010.65 1010.90 1011.17 1011.47 1011.79 1012.15 1012.54 1012.95 1013.37 1013.79 1014.18 1014.52 1014.79 1014.99 1015.11 1015.16 1015.16 1015.13 1015.10 1015.10 1015.15 1015.26 1015.43 1015.67 1015.95 1016.26 1016.59 1016.89 1017.17 1017.40 1017.57 1017.67 1017.72 1017.72 1017.67 1017.59 1017.51 1017.43 1017.38 1017.37 1017.41 1017.50
1010.03 1010.25 1010.52 1010.83 1011.17 1011.54 1011.95 1012.38 1012.83 1013.28 1013.72 1014.12 1014.47 1014.75 1014.96 1015.10 1015.17 1015.19 1015.17 1015.15 1015.14 1015.16 1015.23 1015.35 1015.52 1015.73 1015.98 1016.23 1016.48 1016.72 1016.92 1017.07 1017.18 1017.24 1017.25 1017.22 1017.17 1017.10 1017.03 1016.99 1016.97 1017.01 1017.09
Thickness
5756 5756 5755 5755 5755 5755 5755 5753 5753 5751 5750 5749 5750 5749 5749 5748 5746 5743 5740 5738 5737 5736 5735 5734 5734 5733 5732 5731 5730 5730 5729 5729 5728 5727 5726 5725 5723 5722 5721 5720 5718 5717 5716
5754 5754 5753 5752 5752 5752 5753 5752 5750 5749 5748 5747 5747 5747 5747 5746 5744 5741 5739 5736 5735 5734 5734 5733 5732 5731 5731 5730 5729 5729 5728 5727 5726 5725 5724 5724 5722 5721 5720 5718 5717 5715 5714
5752 5751 5750 5750 5750 5750 5750 5749 5748 5747 5746 5745 5745 5745 5744 5744 5742 5741 5738 5736 5734 5733 5732 5731 5730 5730 5729 5728 5727 5727 5727 5726 5725 5724 5723 5722 5721 5720 5718 5717 5715 5714 5713
5749 5748 5748 5747 5747 5748 5747 5746 5745 5744 5743 5742 5742 5742 5741 5741 5740 5739 5738 5737 5735 5734 5731 5730 5729 5728 5727 5727 5726 5725 5725 5725 5724 5723 5722 5721 5720 5719 5717 5716 5714 5713 5712
5748 5746 5745 5745 5745 5745 5744 5744 5743 5742 5739 5739 5739 5739 5739 5738 5738 5738 5737 5736 5735 5733 5731 5729 5727 5726 5725 5725 5724 5723 5723 5723 5722 5721 5720 5719 5718 5717 5716 5715 5713 5712 5711
5746 5744 5743 5742 5743 5742 5740 5740 5739 5739 5737 5736 5736 5735 5735 5736 5736 5736 5736 5735 5734 5732 5731 5729 5726 5725 5723 5723 5722 5722 5721 5720 5720 5719 5719 5717 5716 5716 5715 5714 5712 5711 5710
5743 5742 5741 5740 5740 5738 5737 5737 5736 5734 5733 5734 5730 5728 5730 5733 5733 5733 5734 5734 5733 5732 5730 5728 5726 5724 5722 5721 5720 5720 5718 5718 5717 5717 5717 5715 5714 5714 5713 5712 5712 5711 5711
5740 5740 5738 5737 5736 5735 5734 5734 5733 5731 5731 5731 5727 5722 5718 5721 5726 5731 5731 5731 5732 5731 5730 5728 5726 5724 5722 5720 5719 5717 5716 5716 5715 5715 5714 5713 5713 5712 5712 5712 5712 5712 5712
5738 5736 5736 5735 5734 5733 5731 5730 5730 5728 5726 5727 5728 5723 5716 5712 5716 5722 5727 5729 5729 5728 5728 5727 5725 5723 5721 5719 5717 5715 5714 5713 5713 5712 5712 5712 5711 5711 5711 5711 5711 5711 5712
5734 5734 5733 5732 5730 5730 5728 5728 5728 5727 5725 5723 5725 5726 5724 5721 5714 5712 5718 5724 5726 5725 5725 5725 5723 5721 5719 5718 5716 5714 5712 5711 5711 5710 5710 5710 5710 5709 5709 5709 5709 5710 5711
5730 5730 5729 5728 5727 5726 5725 5725 5725 5724 5724 5721 5720 5720 5720 5721 5720 5714 5710 5714 5719 5721 5722 5722 5721 5719 5718 5716 5714 5712 5711 5710 5709 5708 5708 5708 5708 5708 5708 5708 5708 5708 5709
5726 5726 5725 5724 5724 5723 5722 5722 5722 5721 5721 5720 5719 5718 5716 5715 5714 5714 5710 5710 5711 5715 5719 5719 5718 5717 5716 5715 5713 5711 5709 5708 5707 5706 5706 5706 5705 5705 5706 5706 5706 5706 5706
5720 5720 5721 5720 5720 5720 5720 5719 5719 5718 5718 5717 5716 5716 5716 5716 5716 5714 5712 5709 5709 5712 5715 5716 5716 5715 5714 5713 5711 5709 5708 5707 5705 5704 5703 5703 5703 5703 5703 5703 5703 5703 5703
5717 5716 5717 5717 5717 5717 5717 5716 5715 5715 5715 5715 5715 5714 5714 5714 5715 5714 5712 5708 5704 5705 5708 5710 5713 5713 5713 5711 5709 5707 5706 5705 5703 5702 5701 5701 5700 5700 5700 5700 5700 5699 5699
5713 5713 5713 5713 5713 5712 5712 5712 5711 5712 5712 5712 5712 5712 5711 5712 5713 5713 5713 5711 5703 5697 5697 5704 5707 5711 5711 5709 5707 5705 5704 5703 5702 5701 5700 5699 5698 5698 5697 5697 5696 5696 5696
5708 5707 5707 5708 5708 5708 5708 5708 5708 5709 5708 5708 5709 5708 5708 5708 5709 5710 5710 5710 5707 5701 5696 5701 5704 5707 5707 5707 5705 5703 5702 5701 5700 5699 5698 5697 5696 5695 5695 5694 5693 5693 5692
5702 5702 5702 5703 5703 5703 5704 5704 5704 5704 5704 5704 5705 5705 5704 5705 5704 5705 5706 5706 5704 5702 5696 5698 5701 5703 5702 5702 5700 5700 5699 5699 5698 5698 5697 5695 5694 5693 5692 5691 5691 5690 5689
5698 5698 5698 5697 5698 5699 5699 5699 5699 5700 5700 5700 5700 5700 5700 5701 5700 5700 5700 5700 5700 5700 5696 5692 5694 5696 5697 5697 5697 5696 5697 5697 5696 5695 5695 5693 5692 5691 5690 5689 5688 5687 5686
5693 5693 5693 5693 5693 5695 5695 5695 5695 5695 5696 5696 5695 5695 5695 5695 5694 5695 5695 5696 5696 5697 5695 5691 5690 5692 5692 5693 5692 5692 5693 5693 5693 5693 5692 5691 5689 5688 5687 5686 5685 5684 5684
5688 5688 5688 5688 5689 5690 5690 5690 5691 5691 5691 5691 5691 5691 5691 5691 5690 5690 5691 5691 5691 5690 5689 5687 5686 5686 5687 5688 5687 5685 5685 5687 5688 5690 5688 5687 5687 5686 5685 5684 5683 5682 5681
5685 5684 5683 5684 5684 5685 5685 5685 5685 5686 5685 5685 5685 5686 5687 5687 5686 5686 5686 5685 5685 5683 5683 5682 5680 5680 5680 5680 5680 5682 5680 5681 5683 5685 5683 5683 5683 5682 5681 5681 5680 5679 5679
5679 5679 5678 5678 5679 5680 5680 5679 5679 5680 5680 5679 5679 5680 5681 5682 5681 5681 5681 5680 5680 5678 5677 5675 5674 5673 5674 5675 5676 5676 5675 5674 5672 5679 5678 5678 5680 5679 5680 5679 5679 5678 5677
5673 5673 5673 5673 5673 5673 5673 5673 5673 5673 5674 5674 5674 5675 5676 5677 5676 5676 5676 5675 5674 5673 5673 5671 5669 5669 5670 5671 5671 5670 5669 5668 5668 5673 5673 5672 5676 5675 5678 5678 5677 5676 5675
5668 5668 5668 5668 5668 5668 5667 5667 5667 5668 5668 5669 5669 5670 5669 5669 5671 5670 5670 5669 5669 5669 5669 5668 5668 5668 5668 5669 5668 5666 5665 5666 5667 5669 5670 5666 5670 5671 5674 5674 5674 5673 5672
5662 5663 5663 5663 5663 5662 5661 5661 5660 5663 5663 5663 5664 5665 5665 5664 5665 5664 5663 5662 5662 5663 5665 5665 5664 5664 5663 5663 5662 5661 5660 5658 5657 5661 5665 5663 5663 5665 5667 5668 5669 5668 5667
5657 5658 5658 5658 5658 5657 5656 5655 5654 5657 5658 5658 5660 5660 5660 5660 5659 5658 5657 5656 5656 5658 5659 5659 5658 5658 5659 5659 5658 5656 5655 5653 5653 5654 5658 5657 5657 5657 5656 5661 5662 5662 5660